Tracking 25734 objects as of 26-May-2022
HD Live streaming from Space Station
objects crossing your sky now

FLOCK 3P 10

Track FLOCK 3P 10 now!
10-day predictions
FLOCK 3P 10 is classified as:


NORAD ID: 41974
Int'l Code: 2017-008AC
Perigee: 444.0 km
Apogee: 450.0 km
Inclination: 97.3 °
Period: 93.4 minutes
Semi major axis: 6818 km
RCS: Unknown
Launch date: February 15, 2017
Source: United States (US)
Launch site: SRIHARIKOTA (SRI)
aabbcc
Your satellite tracking list
Your tracking list is empty




NASA's NSSDC Master Catalog

Two Line Element Set (TLE):
1 41974U 17008AC  22145.76630791  .00054716  00000-0  12732-2 0  9994
2 41974  97.2795 216.5355 0004435 273.9001  86.1740 15.42112557293677
Source of the keplerian elements: AFSPC